Location: Newark
(27.9675°N, 86.8869°E)
Time: 16:31:32
(UTC+00:00)

SR - Pass Details

Date: 25 October 2019
Orbit: 573 x 882 km, 66.7° (Epoch: 20 November)

Event Time Altitude Azimuth Distance (km) Brightness Sun altitude
Rises 14:08:10 0° 197° (SSW) 2,935 - -34.6°
Reaches altitude 10° 14:10:21 10° 195° (SSW) 2,071 - -35.1°
Maximum altitude 14:15:02 70° 112° (ESE) 750 - -36.1°
Drops below altitude 10° 14:20:12 10° 29° (NNE) 2,284 - -37.2°
Sets 14:22:43 0° 27° (NNE) 3,263 - -37.8°
